Regional Weather Roundup
Issued by NWS

Home | Current Version | Previous Version | Graphics & Text | Print | Product List | Glossary On
Versions: 1 2 3 4 5 6 7 8 9 10 11 12 13 14 15 16 17 18 19 20 21 22 23 24 25 26 27 28 29 30 31 32 33 34 35 36 37 38 39 40 41 42 43 44 45 46 47 48 49 50
000
ASUS43 KLSX 231859
RWRMO

WEATHER SUMMARY FOR MISSOURI
NATIONAL WEATHER SERVICE SPRINGFIELD MO
200 PM CDT TUE SEP 23 2014

NOTE: "FAIR" INDICATES FEW OR NO CLOUDS BELOW 12,000 FEET WITH NO
       SIGNIFICANT WEATHER AND/OR OBSTRUCTIONS TO VISIBILITY.
       CURRENT SKY AND/OR WEATHER CONDITIONS ARE NOT AVAILABLE FOR
       CHILLICOTHE AND FARMINGTON.

MOZ001>031-035>038-043-044-053-054-232000-
...NORTHERN AND WESTERN MISSOURI...

CITY           SKY/WX    TMP DP  RH WIND       PRES   REMARKS
KANSAS CTY INT PTSUNNY   71  54  54 S16       30.20F
KANSAS C DTWN  PTSUNNY   75  54  47 S14       30.20F
LEE`S SUMMIT   PTSUNNY   71  50  47 S8G18     30.22F
ST JOSEPH      CLOUDY    74  54  49 S13G22    30.18F
KIRKSVILLE     PTSUNNY   70  52  52 S8        30.27F

$$
MOZ066>068-077>081-088>096-101>105-232000-
...SOUTHWEST MISSOURI...

CITY           SKY/WX    TMP DP  RH WIND       PRES   REMARKS
SPRINGFIELD    SUNNY     71  44  37 SE9       30.24F
JOPLIN         MOSUNNY   74  52  46 SE13      30.22F

$$
MOZ032>034-039>042-045>050-055>058-069>072-232000-
...CENTRAL MISSOURI...

CITY           SKY/WX    TMP DP  RH WIND       PRES   REMARKS
COLUMBIA       MOSUNNY   73  49  42 SE10G17   30.27F
JEFFERSON CITY MOSUNNY   75  44  33 SE7       30.26F
ROLLA          SUNNY     73  44  35 SE10      30.26F
SEDALIA        PTSUNNY   73  51  46 SE9       30.24F
OSAGE BEACH    MOSUNNY   73  45  35 SE8       30.26F

$$
MOZ051-052-059>065-232000-
...EAST CENTRAL MISSOURI...

CITY           SKY/WX    TMP DP  RH WIND       PRES   REMARKS
ST LOUIS INTL  MOSUNNY   73  48  41 NE5       30.29F
SPIRIT OF STL  MOSUNNY   72  49  44 CALM      30.28F
ST CHARLES     MOSUNNY   73  48  41 SE10      30.28F

$$
MOZ072>076-082>087-097>100-106>115-232000-
...SOUTH CENTRAL AND SOUTHEAST MISSOURI...

CITY           SKY/WX    TMP DP  RH WIND       PRES   REMARKS
CAPE GIRARDEAU SUNNY     74  47  38 VRB5      30.27F
FARMINGTON     SUNNY     73  46  38 E8        30.30F
POPLAR BLUFF   SUNNY     74  45  35 VRB5      30.25F
WEST PLAINS    SUNNY     71  45  39 CALM      30.28F

$$



USA.gov is the U.S. government's official web portal to all federal, state and local government web resources and services.